Location: Vancouver
(49.2500°N, 123.1330°W)
Time: 13:17:40
(UTC-07:00)

Daily predictions for brighter satellites

Satellite Brightness Start Highest point End
(mag) Time Altitude Azimuth Time Altitude Azimuth Time Altitude Azimuth
Cosmos 1603 4.4 19:14:05 10° SSE 19:19:04 32° ESE 19:24:06 10° NE
CENTAUR R/B 3.8 19:15:38 10° SE 19:19:29 17° ESE 19:23:36 10° ENE
SL-19 R/B 4.5 19:14:06 10° SSE 19:19:50 80° ENE 19:26:01 10° NNW
Cosmos 1674 4.0 19:17:21 10° NNE 19:20:26 22° ENE 19:23:30 10° ESE
Meteor 1-24 Rocket 4.1 19:15:19 10° NNW 19:20:58 73° W 19:26:22 10° S
Meteor 1-22 Rocket 4.0 19:16:18 10° S 19:21:35 74° E 19:26:53 10° NNE
In-Cosmos 22 4.3 19:18:20 10° N 19:24:07 68° ENE 19:29:51 10° SSE
Cosmos 1470 4.4 19:22:50 10° ESE 19:24:58 14° E 19:27:07 10° NE
Cosmos 1076 Rocket 3.5 19:20:58 10° N 19:25:19 76° E 19:29:39 10° SSE
Abrixas 4.4 19:23:41 10° S 19:25:38 16° SSE 19:27:35 10° ESE
Nadezhda 4 Rocket 4.3 19:23:44 10° N 19:29:47 46° ENE 19:35:44 10° SE
Cosmos 1766 Rocket 3.5 19:26:53 10° N 19:31:16 73° E 19:35:36 10° SSE
ATLAS CENTAUR R/B 4.0 19:27:30 10° SSW 19:32:58 57° ESE 19:50:06 10° NE
NOSS 3-2 (C) 3.6 19:27:32 10° SSW 19:33:37 66° SE 19:40:20 10° NE
Cosmos 2151 4.4 19:32:07 10° NNE 19:35:06 18° ENE 19:38:05 10° ESE
Cosmos 1346 3.3 19:32:54 10° N 19:35:48 44° ENE 19:38:39 10° SSE
Spot 2 Rocket 3.6 19:31:44 10° SE 19:36:37 53° ENE 19:41:32 10° N
Cosmos 2333 Rocket 3.7 19:32:15 10° WSW 19:37:38 39° NW 19:43:02 10° NNE
Cosmos-2242 3.3 19:35:21 10° SSE 19:39:30 44° E 19:43:43 10° NNE
Cosmos 1092 Rocket 4.4 19:33:59 10° N 19:39:50 41° ENE 19:45:36 10° SE
HJ-1C 3.7 19:36:39 10° SE 19:39:53 45° ENE 19:43:08 10° N
FREGAT/IRIS 2.6 19:37:19 10° SSE 19:40:23 68° ENE 19:43:29 10° N
SJ-6B 2.9 19:37:31 10° SSE 19:41:34 90° NNE 19:45:42 10° NNW
Cosmos 1072 Rocket 4.4 19:35:42 10° S 19:41:48 83° E 19:47:57 10° N
ATLAS 5 CENTAUR R/B 1.9 19:38:45 10° SSW 19:43:33 67° SE 19:48:50 10° NE
Cosmos 1544 3.6 19:41:41 10° SSE 19:45:09 37° E 19:48:38 10° NNE
Cosmos 1269 Rocket 4.5 19:40:55 10° S 19:45:47 39° ESE 19:50:41 10° NE
Cosmos 1484 Rocket 4.2 19:44:18 10° S 19:47:59 42° W 19:51:46 10° NNW
SAR-Lupe-4 4.1 19:44:35 10° S 19:48:08 62° WSW 19:51:42 10° NNW
Cosmos 2237 Rocket 3.8 19:47:38 10° WSW 19:52:51 36° NW 19:58:04 10° NNE
Cosmos 1758 3.3 19:53:45 10° S 19:57:51 78° E 20:01:59 10° NNE
CZ-4B DEB 3.5 19:55:35 13° SE 19:58:10 34° ENE 20:01:10 10° N
FengYun 1-2 T 4.2 19:53:29 10° SSE 19:58:55 66° ENE 20:04:21 10° N
Cosmos 1408 Rocket 4.4 19:57:42 10° NNW 20:01:57 52° W 20:06:09 10° S
METEOR-M 4.2 19:57:10 10° SSE 20:02:32 87° WSW 20:07:56 10° NNW
USA 215 4.0 19:56:59 10° ENE 20:02:39 31° SE 20:08:16 10° S
Cosmos 1500 Rocket 3.6 19:58:52 10° N 20:03:16 58° ENE 20:07:39 10° SSE
Cosmos 724 4.3 20:00:18 10° SSW 20:06:14 74° ESE 20:12:22 10° NE
Cosmos 1842 Rocket 3.8 20:04:33 10° SSE 20:08:41 44° E 20:12:50 10° NNE
Meteor 1-29 3.1 20:11:39 10° NNE 20:15:07 52° E 20:18:32 10° S
SL-16 R/B 3.3 20:09:42 10° SW 20:15:11 48° NW 20:20:44 10° NNE
Helios 1A 3.1 20:11:31 10° SSE 20:15:44 80° WSW 20:19:59 10° NNW
Meteor 1-28 Rocket 3.6 20:12:03 10° N 20:15:45 64° WNW 20:19:25 10° SSW
Cosmos 1328 4.2 20:12:13 10° N 20:16:01 42° ENE 20:18:10 22° SE
Cosmos 2034 Rocket 4.2 20:10:49 10° SSW 20:17:07 81° W 20:23:31 10° N
ERS-1 Rocket 4.0 20:15:51 22° E 20:17:35 27° ENE 20:21:44 10° N
SL-14 R/B 4.2 20:15:51 10° N 20:19:27 30° ENE 20:20:16 28° E
ATLAS 3B R/B 4.3 20:13:32 10° W 20:20:10 32° NNW 20:26:32 10° NE
CZ-2D R/B 3.3 20:17:14 16° SSE 20:20:11 56° ENE 20:24:00 10° N
FENGYUN 3A 3.6 20:16:01 10° SSE 20:21:22 74° ENE 20:26:47 10° NNW
Cosmos 1110 Rocket 4.1 20:21:58 10° NNW 20:27:15 62° ENE 20:30:36 22° SE
USA 186 2.8 20:30:41 23° NNE 20:30:41 23° NNE 20:31:54 10° N
H-2A R/B 2.6 20:27:38 19° SSE 20:30:20 72° ENE 20:34:12 10° N
Cosmos 1939 Rocket 4.1 20:32:05 24° ENE 20:32:05 24° ENE 20:35:01 10° N
Cosmos 1743 Rocket 4.4 20:28:32 10° NNW 20:32:52 52° W 20:37:09 10° S
CZ-4C R/B 3.9 20:29:14 10° W 20:34:22 32° NNW 20:40:09 10° NE
ASTEX 1 3.3 20:29:38 10° N 20:34:34 74° E 20:39:27 10° S
Resurs 1-3 4.3 20:33:37 10° S 20:37:55 56° W 20:42:16 10° NNW
Helios 1B rocket 2.7 20:36:07 10° N 20:40:14 71° WNW 20:44:20 10° SSW
Cosmos 1943 Rocket 2.2 20:36:11 10° NNW 20:41:48 62° ENE 20:44:16 33° SE
ALOS 2.5 20:38:24 10° S 20:43:04 71° WSW 20:47:45 10° NNW
Cosmos 1627 Rocket 4.4 20:37:07 10° N 20:43:21 74° E 20:49:09 12° SSE
ISS -2.7 20:40:36 10° SW 20:43:12 41° S 20:43:12 41° S
NOSS 3-2 (A) 4.4 20:38:07 10° WSW 20:44:13 51° NW 20:50:59 10° NE
Resurs 01 Rocket 3.1 20:42:21 10° SSW 20:46:29 37° W 20:50:38 10° NNW
Sich 1 3.9 20:44:03 10° N 20:47:34 32° ENE 20:47:34 32° ENE
SL-8 R/B 3.8 20:44:42 10° SW 20:49:22 54° SSE 20:50:17 46° ESE
Cosmos 1953 4.3 20:46:07 10° SW 20:49:38 30° WNW 20:53:11 10° N
Cosmos 2369 Rocket 2.7 20:44:16 10° NW 20:49:49 59° WSW 20:54:43 13° S
Cosmos 2251 Rocket 3.7 20:44:57 10° S 20:49:51 43° ESE 20:54:49 10° NE
SPOT 5 4.2 20:51:18 21° NE 20:51:18 21° NE 20:53:49 10° N
ERBS 2.2 20:47:40 10° WNW 20:51:11 82° SW 20:51:22 77° SSE
Aureole 3 4.5 20:46:04 10° N 20:52:05 44° ENE 20:53:03 40° E
Cosmos 1733 3.3 20:48:53 10° SSW 20:52:45 77° W 20:56:38 10° N
Cosmos 1943 3.0 20:49:43 10° SSW 20:55:20 75° ESE 21:00:58 10° NNE
Cosmos 1674 4.4 20:52:38 10° NNW 20:56:11 34° W 20:59:43 10° SSW
Cosmos 1331 Rocket 4.0 20:53:00 10° NNW 20:58:21 88° WSW 21:00:44 34° SSE
Cosmos 1470 3.5 20:56:52 10° SSW 21:00:39 52° WNW 21:04:28 10° N
Abrixas 4.2 20:58:05 10° WSW 20:59:42 27° SW 20:59:42 27° SW
Gbstr 26 Del rocket 3.5 20:56:44 10° SW 21:01:15 51° SE 21:01:40 50° SE
Cosmos 2058 2.8 20:59:33 10° N 21:03:42 90° S 21:04:18 65° S
Cosmos 1703 4.4 21:00:56 10° N 21:03:23 31° NNE 21:03:23 31° NNE
GP-B 3.2 21:00:36 10° N 21:05:04 77° W 21:07:56 22° S
CENTAUR R/B 2.4 21:02:42 10° SW 21:08:54 80° SE 21:15:58 10° NE
Cosmos 1302 Rocket 3.8 21:06:54 10° NNW 21:12:08 76° ENE 21:12:57 62° SE
Cosmos 2151 3.8 21:08:38 10° NNW 21:12:44 50° W 21:14:53 25° SSW
Cosmos 1805 Rocket 3.4 21:10:43 10° N 21:15:12 89° W 21:15:27 80° S
H-2A R/B 3.3 21:17:27 32° NNE 21:17:27 32° NNE 21:20:27 10° N
Cosmos 2279 Rocket 3.8 21:16:57 23° S 21:21:01 76° E 21:27:14 10° NNE
Cosmos 2221 2.8 21:23:21 60° N 21:23:21 60° N 21:26:56 10° N
Envisat 2.8 21:26:02 78° SE 21:26:20 82° ENE 21:31:27 10° NNW
Cosmos 1633 Rocket 3.6 21:22:31 10° N 21:25:49 49° N 21:25:49 49° N
Cosmos 1626 4.2 21:24:26 10° N 21:25:43 20° N 21:25:43 20° N
ATLAS 5 CENTAUR R/B 3.6 21:24:09 10° W 21:28:41 32° NNW 21:33:38 10° NE
Cosmos 2266 Rocket 4.0 21:28:01 10° N 21:34:18 60° ENE 21:34:22 60° E
Meteor 2-1 Rocket 4.2 21:33:00 28° SSW 21:36:14 85° WNW 21:42:12 10° N
Cosmos 1655 Rocket 4.4 21:30:13 10° NNW 21:36:20 59° W 21:40:06 24° SSW
MetOp-A 4.4 21:37:13 55° NE 21:37:13 55° NE 21:41:50 10° N
Cosmos 1437 Rocket 4.5 21:39:18 28° N 21:39:18 28° N 21:41:20 10° N
Meteor 1-16 Rocket 4.5 21:32:39 10° SSW 21:37:53 62° WNW 21:43:13 10° N
Terra 4.1 21:41:35 14° NNE 21:41:35 14° NNE 21:42:39 10° NNE
Cosmos 1656 Rocket 3.5 21:38:18 10° NNW 21:43:30 81° N 21:43:30 81° N
USA 215 3.1 21:44:08 48° ENE 21:46:13 86° SE 21:52:47 10° WSW
H-2A R/B 3.7 21:51:18 22° NNE 21:51:18 22° NNE 21:53:41 10° N
ARGOS 4.0 21:51:34 40° NNE 21:51:34 40° NNE 21:55:26 10° N
ERS-1 Rocket 3.6 21:55:51 49° WSW 21:56:06 50° W 22:01:01 10° NNW
BREEZE-M DEB (TANK) 4.2 21:55:47 10° W 22:02:31 35° SW 22:02:31 35° SW
ATLAS 3B R/B 4.4 22:07:13 10° NW 22:13:08 25° N 22:16:17 19° NE
Cosmos 1980 Rocket 4.1 22:16:20 10° N 22:19:27 19° NNE 22:19:27 19° NNE
CZ-4C R/B 4.4 22:20:00 10° NW 22:24:54 23° N 22:27:58 17° NE
Cosmos 1943 Rocket 3.9 22:20:40 10° NW 22:25:06 24° WSW 22:25:49 24° WSW
Lacrosse 4 Rocket 4.3 22:33:34 10° N 22:34:27 13° N 22:34:27 13° N
SL-16 R/B 4.5 22:50:36 10° N 22:53:03 16° NNE 22:53:03 16° NNE
CENTAUR R/B 3.9 22:54:16 10° W 23:00:17 37° NNW 23:07:04 10° NE
ATLAS 5 CENTAUR R/B 4.4 23:11:16 10° NW 23:15:04 19° N 23:15:38 19° N
Cosmos 2322 Rocket 4.4 23:12:14 10° N 23:14:33 18° NNE 23:14:33 18° NNE
Terra 4.5 23:20:29 16° NNW 23:20:29 16° NNW 23:21:27 10° NNW
H-2A R/B 4.4 23:31:57 19° NNW 23:31:57 19° NNW 23:33:29 10° NNW
USA 215 4.5 23:31:32 34° WNW 23:31:32 34° WNW 23:35:18 10° W
